Regional Weather Roundup
Issued by NWS Goodland, KS

Home | Current Version | Previous Version | Graphics & Text | Print | Product List | Glossary On
Versions: 1 2 3 4 5 6 7 8 9 10 11 12 13 14 15 16 17 18 19 20 21 22 23 24 25 26 27 28 29 30 31 32 33 34 35 36 37 38 39 40 41 42 43 44 45 46 47 48 49 50
000
ASUS43 KGLD 270008
RWRGLD

GOODLAND FORECAST AREA HOURLY WEATHER ROUNDUP
NATIONAL WEATHER SERVICE GOODLAND KS
600 PM MDT MON JUN 26 2017

...OFFICIAL OBSERVATIONS...

CITY           SKY/WX    TMP DP  RH WIND       PRES   REMARKS
GOODLAND KS    CLOUDY    71  61  70 E23G31    30.11R
HILL CITY KS   CLOUDY    82  62  50 E6        30.08R
IMPERIAL NEB   SUNNY     79  54  41 E13       30.10F
MCCOOK NEB     SUNNY     78  57  48 E15       30.10S
AKRON CO       MOSUNNY   80  55  42 E17G30    30.12F
BURLINGTON CO  SUNNY     84  55  36 E14       30.10F
LIMON CO       MOSUNNY   81  47  30 SE16      30.14S
$$

...UNOFFICIAL OBSERVATIONS...

CITY           SKY/WX    TMP DP  RH WIND       PRES   REMARKS
LENORA KS        N/A     79  32  18 MISG        N/A
NORTON KS      MOSUNNY   79  54  41 NE10      30.08S
SHARON SPRINGS   N/A     84  60  43 SE6G14      N/A
TRENTON NEB      N/A     77  32  19 E9          N/A
KIT CARSON CO    N/A     87  51  28 MISG        N/A
YUMA CO        FAIR      77  55  47 E17       30.11S
$$




USA.gov is the U.S. government's official web portal to all federal, state and local government web resources and services.